EW8360 Weather Reports


Display with metric or nautical units.
time (UTC)temp
F
wind
direction
speed
MPH
gust
MPH
rain 1hr
in
rain 24hr
in
rain mn
in
humidity
%
barometer
mb
20260509112601 60 272 1.0 3.0 0.00 0.00 0.00 90 1011.8
20260509112101 60 268 2.0 5.0 0.00 0.00 0.00 90 1011.8
20260509111100 60 263 2.0 2.0 0.00 0.00 0.00 90 1011.9
20260509110603 60 266 1.0 2.0 0.00 0.00 0.00 90 1011.9
20260509110100 60 259 1.0 2.0 0.00 0.00 0.00 90 1012.0
20260509105059 60 243 1.0 3.0 0.00 0.00 0.00 90 1012.0
20260509104559 60 266 1.0 3.0 0.00 0.00 0.00 90 1011.9
20260509104101 60 244 0.0 1.0 0.00 0.00 0.00 90 1011.9
20260509103821 60 245 0.0 3.0 0.00 0.00 0.00 90 1011.8
20260509103059 60 252 1.0 3.0 0.00 0.00 0.00 90 1011.8
20260509102559 60 262 0.0 2.0 0.00 0.00 0.00 90 1011.9
20260509102059 60 252 0.0 5.0 0.00 0.00 0.00 90 1011.9
20260509101558 60 248 1.0 5.0 0.00 0.00 0.00 90 1012.0
20260509101059 60 264 2.0 3.0 0.00 0.00 0.00 90 1012.0
20260509100107 60 324 2.0 3.0 0.00 0.00 0.00 90 1011.9
20260509095608 60 279 0.0 5.0 0.00 0.00 0.00 90 1012.0
20260509095108 60 314 2.0 5.0 0.00 0.00 0.00 90 1011.9
20260509094608 60 261 2.0 2.0 0.00 0.00 0.00 90 1012.0
20260509094107 60 263 0.0 0.0 0.00 0.00 0.00 90 1012.0
20260509093609 61 253 0.0 0.0 0.00 0.00 0.00 90 1012.2
20260509093107 61 224 0.0 1.0 0.00 0.00 0.00 90 1012.2
20260509092606 61 252 0.0 3.0 0.00 0.00 0.00 90 1012.2
20260509092106 61 267 1.0 3.0 0.00 0.00 0.00 90 1012.3
20260509091826 61 257 1.0 2.0 0.00 0.00 0.00 90 1012.3
20260509091109 61 256 0.0 2.0 0.00 0.00 0.00 90 1012.3
20260509090605 61 260 1.0 3.0 0.00 0.00 0.00 90 1012.4
20260509090108 61 256 1.0 3.0 0.00 0.00 0.00 90 1012.4
20260509085607 61 262 0.0 3.0 0.00 0.00 0.00 90 1012.5
20260509085108 61 264 0.0 0.0 0.00 0.00 0.00 90 1012.4
20260509084607 61 266 0.0 2.0 0.00 0.00 0.00 90 1012.6
20260509083607 61 251 0.0 1.0 0.00 0.00 0.00 90 1012.7
20260509083106 61 267 0.0 5.0 0.00 0.00 0.00 90 1012.6
20260509082606 61 245 0.0 5.0 0.00 0.00 0.00 90 1012.6
20260509082105 61 206 3.0 5.0 0.00 0.00 0.00 90 1012.5
20260509081106 61 252 0.0 5.0 0.00 0.00 0.00 90 1012.6
20260509080605 61 256 2.0 5.0 0.00 0.00 0.00 90 1012.7
20260509080105 61 301 1.0 3.0 0.00 0.00 0.00 90 1012.7
20260509075604 61 263 0.0 3.0 0.00 0.00 0.00 90 1012.7
20260509075106 61 269 1.0 1.0 0.00 0.00 0.00 90 1012.7
20260509074832 61 271 0.0 1.0 0.00 0.00 0.00 89 1012.8
20260509074104 61 257 0.0 3.0 0.00 0.00 0.00 89 1012.9
20260509073604 61 252 0.0 5.0 0.00 0.00 0.00 90 1012.9
20260509073330 61 209 3.0 5.0 0.00 0.00 0.00 90 1012.9
20260509072605 61 249 0.0 1.0 0.00 0.00 0.00 89 1012.8
20260509072104 61 248 0.0 3.0 0.00 0.00 0.00 89 1012.9
20260509071828 61 254 1.0 3.0 0.00 0.00 0.00 89 1013.0
20260509071104 61 225 2.0 5.0 0.00 0.00 0.00 89 1013.0
20260509070605 61 238 1.0 5.0 0.00 0.00 0.00 89 1013.0
20260509070105 61 247 0.0 3.0 0.00 0.00 0.00 89 1013.1
20260509065603 61 270 0.0 5.0 0.00 0.00 0.00 89 1013.1
20260509065105 61 276 1.0 5.0 0.00 0.00 0.00 89 1013.2
20260509064604 61 268 1.0 5.0 0.00 0.00 0.00 89 1013.3
20260509064103 61 265 1.0 5.0 0.00 0.00 0.00 89 1013.2
20260509063603 61 254 2.0 5.0 0.00 0.00 0.00 89 1013.2
20260509063104 61 275 2.0 5.0 0.00 0.00 0.00 89 1013.2
20260509062603 61 267 1.0 3.0 0.00 0.00 0.00 89 1013.2
20260509062102 61 274 1.0 2.0 0.00 0.00 0.00 89 1013.1
20260509061603 61 267 0.0 0.0 0.00 0.00 0.00 89 1013.1
20260509061104 61 256 0.0 2.0 0.00 0.00 0.00 89 1013.2
20260509060605 61 273 0.0 2.0 0.00 0.00 0.00 89 1013.2
20260509055602 61 258 1.0 5.0 0.00 0.00 0.00 89 1013.3
20260509055333 61 263 1.0 5.0 0.00 0.00 0.00 89 1013.3
20260509054604 61 266 0.0 5.0 0.00 0.00 0.00 89 1013.3
20260509054101 61 296 1.0 5.0 0.00 0.00 0.00 89 1013.3
20260509053601 61 321 2.0 5.0 0.00 0.00 0.00 89 1013.3
20260509053103 61 255 0.0 5.0 0.00 0.00 0.00 89 1013.3
20260509052604 61 305 2.0 6.0 0.00 0.00 0.00 89 1013.4
20260509052103 61 278 1.0 6.0 0.00 0.00 0.00 89 1013.4
20260509051601 62 257 0.0 5.0 0.00 0.00 0.00 89 1013.5
20260509051105 62 263 3.0 5.0 0.00 0.00 0.00 89 1013.4
20260509050603 62 251 3.0 6.0 0.00 0.00 0.00 88 1013.5
20260509045601 62 266 4.0 6.0 0.00 0.00 0.00 88 1013.4
20260509045100 62 285 2.0 5.0 0.00 0.00 0.00 88 1013.4
20260509044602 62 254 3.0 5.0 0.00 0.00 0.00 88 1013.4
20260509044101 62 311 2.0 5.0 0.00 0.00 0.00 88 1013.3
20260509043601 62 281 1.0 7.0 0.00 0.00 0.00 88 1013.3
20260509043100 62 297 4.0 7.0 0.00 0.00 0.00 88 1013.3
20260509042602 62 292 3.0 8.0 0.00 0.00 0.00 88 1013.3
20260509042102 62 325 3.0 9.0 0.00 0.00 0.00 88 1013.2
20260509041601 62 344 7.0 9.0 0.00 0.00 0.00 88 1013.2
20260509041101 62 348 7.0 10.0 0.00 0.00 0.00 87 1013.1
20260509040603 62 352 6.0 12.0 0.00 0.00 0.00 88 1013.1
20260509040324 62 347 8.0 12.0 0.00 0.00 0.00 88 1013.0
20260509035600 62 351 9.0 10.0 0.00 0.00 0.00 88 1013.1
20260509035100 62 294 6.0 7.0 0.00 0.00 0.00 88 1013.0
20260509034601 62 265 2.0 7.0 0.00 0.00 0.00 88 1013.1
20260509034104 62 277 5.0 7.0 0.00 0.00 0.00 88 1013.0
20260509033823 62 304 4.0 7.0 0.00 0.00 0.00 88 1012.9
20260509033100 62 332 5.0 7.0 0.00 0.00 0.00 88 1012.8
20260509032602 62 301 2.0 6.0 0.00 0.00 0.00 89 1012.8
20260509032328 62 293 4.0 7.0 0.00 0.00 0.00 89 1012.8
20260509031558 62 263 0.0 7.0 0.00 0.00 0.00 89 1012.8
20260509031100 62 306 5.0 6.0 0.00 0.00 0.00 89 1012.8
20260509030559 62 261 2.0 6.0 0.00 0.00 0.00 89 1012.8
20260509030059 62 280 1.0 6.0 0.00 0.00 0.00 88 1012.7
20260509025557 62 342 3.0 7.0 0.00 0.00 0.00 88 1012.7
20260509025058 62 271 2.0 7.0 0.00 0.00 0.00 88 1012.6
20260509024559 62 262 2.0 7.0 0.00 0.00 0.00 88 1012.6
20260509024058 62 258 0.0 8.0 0.00 0.00 0.00 88 1012.5
20260509023559 62 265 2.0 8.0 0.00 0.00 0.00 88 1012.5
20260509023057 62 237 2.0 7.0 0.00 0.00 0.00 88 1012.5
20260509022558 63 274 2.0 7.0 0.00 0.00 0.00 87 1012.4
20260509022058 63 267 5.0 7.0 0.00 0.00 0.00 87 1012.5
20260509021558 63 326 3.0 7.0 0.00 0.00 0.00 87 1012.3
20260509021057 64 275 4.0 7.0 0.00 0.00 0.00 86 1012.4
20260509020559 64 328 4.0 9.0 0.00 0.00 0.00 85 1012.3
20260509020058 64 318 3.0 9.0 0.00 0.00 0.00 84 1012.3
20260509015556 65 323 2.0 8.0 0.00 0.00 0.00 84 1012.2
20260509015057 65 258 2.0 8.0 0.00 0.00 0.00 83 1012.2
20260509014559 65 239 3.0 8.0 0.00 0.00 0.00 82 1012.2
20260509014059 66 286 4.0 9.0 0.00 0.00 0.00 82 1012.1
20260509013556 66 273 3.0 9.0 0.00 0.00 0.00 81 1012.1
20260509013057 66 260 3.0 8.0 0.00 0.00 0.00 80 1012.2
20260509012557 66 304 3.0 8.0 0.00 0.00 0.00 79 1012.2
20260509012058 66 306 1.0 8.0 0.00 0.00 0.00 78 1012.1
20260509011556 66 345 3.0 8.0 0.00 0.00 0.00 79 1012.2
20260509011056 67 273 2.0 8.0 0.00 0.00 0.00 79 1012.2
20260509010557 67 258 2.0 8.0 0.00 0.00 0.00 79 1012.2
20260509010057 67 269 3.0 8.0 0.00 0.00 0.00 79 1012.2
20260509005556 68 241 3.0 8.0 0.00 0.00 0.00 77 1012.2
20260509005055 68 300 5.0 9.0 0.00 0.00 0.00 78 1012.2
20260509004555 68 294 6.0 9.0 0.00 0.00 0.00 77 1012.2
20260509004315 68 258 2.0 7.0 0.00 0.00 0.00 76 1012.2
20260509003557 68 251 3.0 7.0 0.00 0.00 0.00 76 1012.2
20260509003055 68 275 3.0 7.0 0.00 0.00 0.00 74 1012.2
20260509002611 68 291 3.0 8.0 0.00 0.00 0.00 75 1012.3
20260509002056 68 251 2.0 8.0 0.00 0.00 0.00 75 1012.2
20260509001559 69 211 2.0 8.0 0.00 0.00 0.00 75 1012.2
20260509001315 69 262 4.0 8.0 0.00 0.00 0.00 74 1012.2
20260509000554 69 284 1.0 8.0 0.00 0.00 0.00 74 1012.3
20260509000326 69 261 2.0 9.0 0.00 0.00 0.00 73 1012.3
20260508235557 69 328 5.0 9.0 0.00 0.00 0.00 75 1012.3
20260508235055 69 258 3.0 8.0 0.00 0.00 0.00 75 1012.4
20260508234554 69 243 3.0 9.0 0.00 0.00 0.00 72 1012.4
20260508234055 68 304 5.0 10.0 0.00 0.00 0.00 74 1012.5
20260508233555 68 331 5.0 10.0 0.00 0.00 0.00 72 1012.4
20260508233053 68 257 3.0 9.0 0.00 0.00 0.00 73 1012.4
20260508232553 68 310 6.0 9.0 0.00 0.00 0.00 74 1012.4
20260508232053 68 359 4.0 10.0 0.00 0.00 0.00 74 1012.4
20260508231816 68 319 3.0 10.0 0.00 0.00 0.00 74 1012.6
20260508231052 68 8 6.0 10.0 0.00 0.00 0.00 75 1012.6
20260508230823 68 340 5.0 8.0 0.00 0.00 0.00 73 1012.7
20260508230314 67 339 3.0 10.0 0.00 0.00 0.00 75 1012.7
20260508225554 67 287 6.0 13.0 0.00 0.00 0.00 74 1012.7
20260508225054 67 215 3.0 13.0 0.00 0.00 0.00 74 1012.7
20260508224553 67 303 6.0 10.0 0.00 0.00 0.00 75 1012.7
20260508224052 67 332 6.0 13.0 0.00 0.00 0.00 73 1012.9
20260508223553 67 260 6.0 13.0 0.00 0.00 0.00 75 1012.9
20260508223053 67 327 9.0 13.0 0.00 0.00 0.00 75 1012.9
20260508222553 67 320 4.0 13.0 0.00 0.00 0.00 75 1012.9
20260508222054 67 337 2.0 13.0 0.00 0.00 0.00 77 1012.9
20260508221553 67 326 4.0 15.0 0.00 0.00 0.00 76 1013.0
20260508221315 67 277 5.0 15.0 0.00 0.00 0.00 76 1013.1
20260508220553 67 325 8.0 16.0 0.00 0.00 0.00 77 1013.1
20260508220052 68 1 11.0 16.0 0.00 0.00 0.00 77 1013.1
20260508215553 68 18 6.0 13.0 0.00 0.00 0.00 75 1013.1
20260508215324 68 336 8.0 13.0 0.00 0.00 0.00 75 1013.3
20260508214816 68 249 3.0 10.0 0.00 0.00 0.00 74 1013.2
20260508214051 68 273 5.0 12.0 0.00 0.00 0.00 72 1013.3
20260508213554 68 319 4.0 12.0 0.00 0.00 0.00 73 1013.3
20260508213316 69 304 7.0 12.0 0.00 0.00 0.00 73 1013.3
20260508212816 69 301 4.0 15.0 0.00 0.00 0.00 73 1013.4
20260508212051 69 266 7.0 15.0 0.00 0.00 0.00 74 1013.3
20260508211552 69 348 5.0 9.0 0.00 0.00 0.00 72 1013.4
20260508211052 69 267 5.0 9.0 0.00 0.00 0.00 72 1013.3
20260508210807 69 262 3.0 9.0 0.00 0.00 0.00 71 1013.3
20260508210051 69 298 4.0 10.0 0.00 0.00 0.00 71 1013.2
20260508205551 69 231 2.0 10.0 0.00 0.00 0.00 72 1013.2
20260508205052 70 303 3.0 9.0 0.00 0.00 0.00 71 1013.2
20260508204550 70 281 5.0 9.0 0.00 0.00 0.00 72 1013.2
20260508204049 70 273 1.0 8.0 0.00 0.00 0.00 71 1013.4
20260508203811 69 296 3.0 8.0 0.00 0.00 0.00 72 1013.3
20260508203051 70 311 4.0 10.0 0.00 0.00 0.00 72 1013.3
20260508202550 70 295 2.0 10.0 0.00 0.00 0.00 71 1013.3
20260508202314 70 325 6.0 8.0 0.00 0.00 0.00 70 1013.3
20260508201549 70 277 6.0 10.0 0.00 0.00 0.00 71 1013.3
20260508201051 70 256 3.0 10.0 0.00 0.00 0.00 72 1013.4
20260508200549 70 334 4.0 9.0 0.00 0.00 0.00 72 1013.4
20260508200050 69 309 4.0 9.0 0.00 0.00 0.00 72 1013.5
20260508195809 69 265 3.0 10.0 0.00 0.00 0.00 71 1013.5
20260508195050 69 276 6.0 10.0 0.00 0.00 0.00 70 1013.6
20260508194550 69 292 3.0 9.0 0.00 0.00 0.00 71 1013.6
20260508194048 69 277 3.0 10.0 0.00 0.00 0.00 71 1013.6
20260508193549 70 241 4.0 10.0 0.00 0.00 0.00 71 1013.6
20260508193050 70 277 5.0 7.0 0.00 0.00 0.00 71 1013.8
20260508192550 70 275 4.0 9.0 0.00 0.00 0.00 73 1013.8
20260508192313 70 291 4.0 9.0 0.00 0.00 0.00 73 1013.8
20260508191049 70 247 2.0 10.0 0.00 0.00 0.00 72 1014.0
20260508190549 70 261 3.0 9.0 0.00 0.00 0.00 70 1013.9
20260508190314 70 348 6.0 9.0 0.00 0.00 0.00 72 1013.9
20260508185549 70 284 4.0 9.0 0.00 0.00 0.00 70 1014.0
20260508185048 69 246 3.0 9.0 0.00 0.00 0.00 70 1014.0
20260508184550 69 269 5.0 9.0 0.00 0.00 0.00 71 1014.0
20260508184048 69 289 3.0 9.0 0.00 0.00 0.00 72 1014.1
20260508183547 69 293 3.0 9.0 0.00 0.00 0.00 72 1014.2
20260508183050 69 340 5.0 10.0 0.00 0.00 0.00 72 1014.2
20260508182548 69 275 3.0 10.0 0.00 0.00 0.00 73 1014.3
20260508182047 69 294 5.0 8.0 0.00 0.00 0.00 74 1014.3
20260508181547 68 309 5.0 10.0 0.00 0.00 0.00 73 1014.3
20260508181048 68 355 6.0 10.0 0.00 0.00 0.00 71 1014.3
20260508180548 67 294 2.0 10.0 0.00 0.00 0.00 72 1014.4
20260508180047 67 303 2.0 10.0 0.00 0.00 0.00 73 1014.4
20260508175813 66 42 1.0 9.0 0.00 0.00 0.00 75 1014.4
20260508174547 66 348 6.0 9.0 0.00 0.00 0.00 76 1014.5
20260508174045 66 330 8.0 9.0 0.00 0.00 0.00 77 1014.5
20260508173547 66 342 6.0 9.0 0.00 0.00 0.00 78 1014.6
20260508173048 65 330 5.0 7.0 0.00 0.00 0.00 77 1014.6
20260508172546 65 259 2.0 6.0 0.00 0.00 0.00 75 1014.6
20260508172310 65 282 1.0 6.0 0.00 0.00 0.00 78 1014.7
20260508171546 65 302 5.0 6.0 0.00 0.00 0.00 77 1014.6
20260508171045 65 271 1.0 6.0 0.00 0.00 0.00 77 1014.7
20260508170546 64 259 1.0 6.0 0.00 0.00 0.00 79 1014.7
20260508170046 64 283 2.0 5.0 0.00 0.00 0.00 80 1014.7
20260508165546 64 291 1.0 6.0 0.00 0.00 0.00 81 1014.7
20260508165044 63 260 2.0 6.0 0.00 0.00 0.00 81 1014.7
20260508164546 63 300 1.0 6.0 0.00 0.00 0.00 80 1014.8
20260508164046 62 256 0.0 6.0 0.00 0.00 0.00 80 1014.8
20260508163544 62 272 1.0 5.0 0.00 0.00 0.00 82 1014.8
20260508163041 62 281 2.0 6.0 0.00 0.00 0.00 82 1014.8
20260508162545 62 283 4.0 6.0 0.00 0.00 0.00 83 1014.8
20260508162046 62 358 2.0 6.0 0.00 0.00 0.00 83 1014.8
20260508161544 62 2 3.0 7.0 0.00 0.00 0.00 83 1014.7
20260508161045 62 300 4.0 7.0 0.00 0.00 0.00 84 1014.8
20260508160546 62 338 5.0 7.0 0.00 0.00 0.00 84 1014.9
20260508160045 62 286 0.0 5.0 0.00 0.00 0.00 85 1014.9
20260508155544 62 277 3.0 3.0 0.00 0.00 0.00 84 1014.9
20260508155044 62 271 2.0 2.0 0.00 0.00 0.00 84 1015.0
20260508154804 61 259 0.0 2.0 0.00 0.00 0.00 84 1014.9
20260508154044 61 254 1.0 3.0 0.00 0.00 0.00 84 1014.9
20260508153543 61 282 1.0 3.0 0.00 0.00 0.00 85 1014.9
20260508153304 61 283 1.0 5.0 0.00 0.00 0.00 85 1015.0
20260508152544 61 246 1.0 5.0 0.00 0.00 0.00 86 1015.0
20260508152044 61 232 4.0 5.0 0.00 0.00 0.00 85 1015.0
20260508151808 61 256 0.0 5.0 0.00 0.00 0.00 86 1014.9
20260508151305 61 237 0.0 5.0 0.00 0.00 0.00 86 1015.0
20260508150544 61 263 2.0 3.0 0.00 0.00 0.00 86 1014.9
20260508150043 61 264 1.0 3.0 0.00 0.00 0.00 87 1015.0
20260508145542 61 291 1.0 3.0 0.00 0.00 0.00 87 1015.0
20260508145307 61 250 0.0 2.0 0.00 0.00 0.00 87 1014.9
20260508144544 61 257 1.0 2.0 0.00 0.00 0.00 87 1014.9
20260508144045 60 265 0.0 0.0 0.00 0.00 0.00 87 1014.9
20260508143541 60 267 0.0 1.0 0.00 0.00 0.00 87 1014.9
20260508143041 60 256 0.0 1.0 0.00 0.00 0.00 87 1014.9
20260508142543 60 258 0.0 1.0 0.00 0.00 0.00 87 1014.9
20260508142043 60 256 0.0 1.0 0.00 0.00 0.00 87 1014.8
20260508141544 60 257 0.0 1.0 0.00 0.00 0.00 88 1014.7
20260508141043 60 267 0.0 1.0 0.00 0.00 0.00 88 1014.7
20260508140541 60 269 0.0 1.0 0.00 0.00 0.00 88 1014.6
20260508140042 60 234 1.0 1.0 0.00 0.00 0.00 88 1014.7
20260508135542 60 248 0.0 1.0 0.00 0.00 0.00 88 1014.7
20260508135041 60 255 0.0 1.0 0.00 0.00 0.00 88 1014.6
20260508134540 60 245 0.0 2.0 0.00 0.00 0.00 88 1014.6
20260508134041 60 224 1.0 2.0 0.00 0.00 0.00 88 1014.6
20260508133543 60 220 1.0 2.0 0.00 0.00 0.00 88 1014.4
20260508133040 60 248 0.0 2.0 0.00 0.00 0.00 89 1014.4
20260508132541 60 225 2.0 2.0 0.00 0.00 0.00 89 1014.4
20260508132040 60 231 1.0 1.0 0.00 0.00 0.00 89 1014.3
20260508131541 60 248 0.0 1.0 0.00 0.00 0.00 89 1014.3
20260508131040 60 251 0.0 3.0 0.00 0.00 0.00 89 1014.2
20260508130540 60 251 0.0 3.0 0.00 0.00 0.00 89 1014.4
20260508130041 60 220 2.0 2.0 0.00 0.00 0.00 89 1014.2
20260508125541 60 244 0.0 1.0 0.00 0.00 0.00 89 1014.2
20260508125039 60 252 0.0 3.0 0.00 0.00 0.00 89 1014.2
20260508124540 60 254 0.0 3.0 0.00 0.00 0.00 89 1014.2
20260508124306 60 244 1.0 2.0 0.00 0.00 0.00 89 1014.1
20260508123539 60 254 0.0 1.0 0.00 0.00 0.00 89 1014.1
20260508123300 60 265 0.0 1.0 0.00 0.00 0.00 90 1014.2
20260508122041 60 262 0.0 1.0 0.00 0.00 0.00 89 1014.1
20260508121541 60 251 0.0 2.0 0.00 0.00 0.00 89 1014.1
20260508121038 60 259 0.0 2.0 0.00 0.00 0.00 89 1014.1
20260508120538 60 234 1.0 2.0 0.00 0.00 0.00 89 1014.1
20260508120039 60 249 0.0 2.0 0.00 0.00 0.00 89 1014.2
20260508115540 60 247 0.0 3.0 0.00 0.00 0.00 89 1014.1
20260508115038 60 250 0.0 3.0 0.00 0.00 0.00 89 1014.1
20260508114537 60 241 0.0 0.0 0.00 0.00 0.00 89 1014.1
20260508114039 60 243 0.0 0.0 0.00 0.00 0.00 89 1014.0
20260508113539 60 252 0.0 2.0 0.00 0.00 0.00 89 1014.1